FW0135 Weather Reports


Display with metric or nautical units.
time (UTC)temp
F
wind
direction
speed
MPH
gust
MPH
rain 1hr
in
rain 24hr
in
rain mn
in
humidity
%
barometer
mb
20260902162159 67 346 0.0 0.0 0.00 0.02 0.00 86 1007.7
20260902161656 67 346 0.0 0.0 0.00 0.02 0.00 87 1007.6
20260902161153 67 346 0.0 0.0 0.00 0.02 0.00 87 1007.7
20260902160654 67 346 0.0 0.0 0.00 0.02 0.00 88 1007.8
20260902160152 67 346 0.0 0.0 0.00 0.02 0.00 88 1007.8
20260902155653 67 346 0.0 0.0 0.00 0.02 0.00 87 1008.0
20260902155148 67 346 0.0 0.0 0.00 0.03 0.00 88 1007.9
20260902154149 67 346 0.0 0.0 0.00 0.03 0.00 89 1008.2
20260902153647 67 346 0.0 0.0 0.00 0.03 0.00 89 1008.2
20260902153148 67 346 0.0 0.0 0.00 0.03 0.00 89 1008.4
20260902152648 66 346 0.0 0.0 0.00 0.03 0.00 89 1008.4
20260902152148 66 346 0.0 0.0 0.00 0.03 0.00 90 1008.3
20260902151648 66 346 0.0 0.0 0.00 0.03 0.00 89 1008.3
20260902151149 66 346 0.0 0.0 0.00 0.03 0.00 90 1008.3
20260902150144 65 346 0.0 0.0 0.00 0.03 0.00 89 1008.2
20260902145644 65 346 0.0 0.0 0.00 0.03 0.00 90 1008.2
20260902144644 65 346 0.0 0.0 0.00 0.03 0.00 91 1008.4
20260902144144 64 346 0.0 0.0 0.00 0.03 0.00 91 1008.5
20260902143643 64 346 0.0 0.0 0.00 0.03 0.00 91 1008.5
20260902143144 64 346 0.0 0.0 0.00 0.03 0.00 91 1008.4
20260902142644 64 346 0.0 0.0 0.00 0.03 0.00 91 1008.3
20260902142137 64 346 0.0 0.0 0.00 0.03 0.00 91 1008.2
20260902141631 64 346 0.0 0.0 0.00 0.03 0.00 92 1008.2
20260902141125 64 346 0.0 0.0 0.00 0.03 0.00 92 1008.2
20260902140619 64 333 0.0 0.0 0.00 0.03 0.00 93 1008.0
20260902140113 64 333 0.0 0.0 0.00 0.03 0.00 93 1007.9
20260902135102 64 71 0.0 0.0 0.00 0.03 0.00 93 1007.8
20260902134555 64 71 0.0 0.0 0.00 0.03 0.00 93 1007.6
20260902134050 63 71 0.0 0.0 0.00 0.04 0.00 93 1007.6
20260902133037 63 71 0.0 0.0 0.00 0.05 0.00 93 1007.5
20260902132538 63 74 0.0 0.0 0.00 0.05 0.00 94 1007.6
20260902132038 63 74 0.0 0.0 0.00 0.06 0.00 94 1007.6
20260902131537 63 74 0.0 0.0 0.00 0.06 0.00 94 1007.4
20260902131037 62 74 0.0 0.0 0.00 0.07 0.00 94 1007.5
20260902130035 62 74 0.0 0.0 0.00 0.09 0.00 94 1007.7
20260902125536 62 74 0.0 0.0 0.00 0.11 0.00 94 1007.9
20260902125035 62 74 0.0 0.0 0.00 0.12 0.00 94 1007.9
20260902124533 62 74 0.0 0.0 0.00 0.13 0.00 94 1007.9
20260902124032 62 74 0.0 0.0 0.00 0.15 0.00 94 1007.8
20260902123032 62 74 0.0 0.0 0.00 0.20 0.00 94 1007.8
20260902122529 62 74 0.0 0.0 0.00 0.21 0.00 94 1007.7
20260902122028 62 74 0.0 0.0 0.00 0.22 0.00 94 1007.7
20260902121527 62 74 0.0 0.0 0.00 0.23 0.00 94 1007.7
20260902120525 61 74 0.0 0.0 0.00 0.25 0.00 94 1007.7
20260902120024 61 74 0.0 0.0 0.00 0.27 0.00 94 1007.7
20260902115523 61 74 0.0 0.0 0.00 0.28 0.00 94 1007.9
20260902115017 61 74 0.0 0.0 0.00 0.29 0.00 94 1007.8
20260902114510 61 74 0.0 0.0 0.00 0.31 0.00 94 1007.9
20260902114005 61 74 0.0 0.0 0.00 0.32 0.00 94 1007.9
20260902113501 61 74 0.0 0.0 0.00 0.33 0.00 94 1007.9
20260902112952 61 74 0.0 0.0 0.00 0.34 0.00 94 1007.9
20260902112448 61 74 0.0 0.0 0.00 0.35 0.00 94 1007.9
20260902111941 61 74 0.0 0.0 0.00 0.36 0.00 94 1008.0
20260902111435 61 74 0.0 0.0 0.00 0.36 0.00 94 1008.0
20260902110928 61 74 0.0 0.0 0.00 0.36 0.00 94 1007.8
20260902110422 61 74 0.0 0.0 0.00 0.36 0.00 94 1007.6
20260902105918 61 74 0.0 0.0 0.00 0.36 0.00 94 1007.6
20260902105414 61 74 0.0 0.0 0.00 0.36 0.00 94 1007.6
20260902104905 61 74 0.0 0.0 0.00 0.36 0.00 94 1007.6
20260902103347 61 74 0.0 0.0 0.00 0.36 0.00 94 1007.6
20260902102840 61 74 0.0 0.0 0.00 0.36 0.00 94 1007.3
20260902101828 61 74 0.0 0.0 0.00 0.36 0.00 94 1007.1
20260902101323 61 74 0.0 0.0 0.00 0.36 0.00 94 1007.0
20260902100817 61 74 0.0 0.0 0.00 0.36 0.00 94 1007.2
20260902100311 61 74 0.0 0.0 0.00 0.36 0.00 94 1007.1
20260902095259 61 74 0.0 0.0 0.00 0.36 0.00 94 1007.1
20260902094758 61 74 0.0 0.0 0.00 0.36 0.00 94 1007.1
20260902094254 61 74 0.0 0.0 0.00 0.36 0.00 94 1007.0
20260902093754 61 74 0.0 0.0 0.00 0.36 0.00 94 1006.9
20260902093251 61 74 0.0 0.0 0.00 0.36 0.00 94 1006.8
20260902092750 61 74 0.0 0.0 0.00 0.36 0.00 94 1006.8
20260902091745 61 74 0.0 0.0 0.00 0.36 0.00 94 1006.8
20260902091242 61 74 0.0 0.0 0.00 0.36 0.00 94 1006.8
20260902090742 61 74 0.0 0.0 0.00 0.36 0.00 94 1006.7
20260902090238 61 74 0.0 0.0 0.00 0.36 0.00 94 1006.7
20260902085739 61 74 0.0 0.0 0.00 0.36 0.00 94 1006.8
20260902085240 61 74 0.0 0.0 0.00 0.36 0.00 94 1006.7
20260902084737 61 74 0.0 0.0 0.00 0.36 0.00 94 1006.8
20260902084235 61 74 0.0 0.0 0.00 0.36 0.00 94 1006.9
20260902083231 61 74 0.0 0.0 0.00 0.36 0.00 94 1006.8
20260902082232 61 74 0.0 0.0 0.00 0.36 0.00 93 1006.6
20260902081732 61 74 0.0 0.0 0.00 0.36 0.00 94 1006.6
20260902080727 61 74 0.0 0.0 0.00 0.36 0.00 93 1006.8
20260902075727 61 74 0.0 0.0 0.00 0.36 0.00 93 1006.9
20260902075227 61 74 0.0 0.0 0.00 0.36 0.00 93 1007.0
20260902074727 61 74 0.0 0.0 0.00 0.36 0.00 93 1007.0
20260902074226 61 74 0.0 0.0 0.00 0.36 0.00 93 1007.0
20260902073228 61 74 0.0 0.0 0.00 0.36 0.00 93 1006.9
20260902072723 61 74 0.0 0.0 0.00 0.36 0.00 93 1006.9
20260902072223 61 74 0.0 0.0 0.00 0.36 0.00 93 1007.0
20260902071722 61 74 0.0 0.0 0.00 0.36 0.00 93 1007.1
20260902070722 61 74 0.0 0.0 0.00 0.36 0.00 93 1007.0
20260902070222 61 74 0.0 0.0 0.00 0.36 0.00 93 1006.9
20260902065723 61 74 0.0 0.0 0.00 0.36 0.00 93 1006.8
20260902065222 61 74 0.0 0.0 0.00 0.36 0.00 93 1006.9
20260902064723 61 74 0.0 0.0 0.00 0.36 0.00 93 1006.8
20260902064216 61 74 0.0 0.0 0.00 0.36 0.00 93 1006.8
20260902063711 61 74 0.0 0.0 0.00 0.36 0.00 93 1006.7
20260902063204 61 74 0.0 0.0 0.00 0.36 0.00 93 1006.7
20260902062658 61 74 0.0 0.0 0.00 0.36 0.00 93 1006.6
20260902062153 61 74 0.0 0.0 0.00 0.36 0.00 93 1006.7
20260902061646 61 74 0.0 0.0 0.00 0.36 0.00 93 1006.6
20260902061140 61 74 0.0 0.0 0.00 0.36 0.00 93 1006.7
20260902060635 61 74 0.0 0.0 0.00 0.36 0.00 93 1006.7
20260902055622 61 74 0.0 0.0 0.00 0.36 0.00 93 1006.5
20260902055116 61 74 0.0 0.0 0.00 0.36 0.00 93 1006.6
20260902054611 61 74 0.0 0.0 0.00 0.36 0.00 93 1006.5
20260902053558 61 74 0.0 0.0 0.00 0.36 0.00 93 1006.4
20260902053053 61 74 0.0 0.0 0.00 0.36 0.00 93 1006.4
20260902052546 61 74 0.0 0.0 0.00 0.36 0.00 93 1006.3
20260902052040 61 74 0.0 0.0 0.00 0.36 0.00 93 1006.2
20260902051535 61 74 0.0 0.0 0.00 0.36 0.00 93 1006.3
20260902051029 61 74 0.0 0.0 0.00 0.36 0.00 93 1006.3
20260902050523 61 74 0.0 0.0 0.00 0.36 0.00 93 1006.2
20260902050017 61 74 0.0 0.0 0.00 0.36 0.00 93 1006.1
20260902045510 61 74 0.0 0.0 0.00 0.36 0.00 93 1006.1
20260902044458 61 74 0.0 0.0 0.00 0.36 0.00 93 1005.9
20260902043952 61 74 0.0 0.0 0.00 0.36 0.00 93 1005.8
20260902042940 61 74 0.0 0.0 0.00 0.36 0.00 93 1005.8
20260902042435 61 74 0.0 0.0 0.00 0.36 0.00 93 1005.7
20260902041932 61 74 0.0 0.0 0.00 0.36 0.00 93 1005.6
20260902041432 61 74 0.0 0.0 0.00 0.36 0.00 93 1005.5
20260902040931 61 74 0.0 0.0 0.00 0.36 0.00 93 1005.5
20260902040428 61 74 0.0 0.0 0.00 0.36 0.00 93 1005.4
20260902035925 61 74 0.0 0.0 0.00 0.36 0.36 93 1005.3
20260902034914 61 74 0.0 0.0 0.00 0.36 0.36 93 1005.3
20260902034407 61 74 0.0 0.0 0.00 0.36 0.36 93 1005.2
20260902033902 61 74 0.0 0.0 0.00 0.36 0.36 93 1005.1
20260902033355 61 74 0.0 0.0 0.00 0.36 0.36 93 1005.1
20260902032849 61 74 0.0 0.0 0.00 0.36 0.36 93 1005.2
20260902032344 61 74 0.0 0.0 0.00 0.36 0.36 93 1005.2
20260902031837 61 74 0.0 0.0 0.00 0.36 0.36 93 1005.2
20260902031331 61 74 0.0 0.0 0.00 0.36 0.36 93 1005.2
20260902030826 61 74 0.0 0.0 0.00 0.36 0.36 93 1005.2
20260902030320 61 74 0.0 0.0 0.00 0.36 0.36 93 1005.2
20260902025813 61 74 0.0 0.0 0.00 0.36 0.36 93 1004.9
20260902025307 61 74 0.0 0.0 0.01 0.36 0.36 93 1005.0
20260902024801 61 74 0.0 0.0 0.01 0.36 0.36 93 1005.1
20260902024256 61 74 0.0 0.0 0.01 0.36 0.36 93 1005.2
20260902023750 61 74 0.0 0.0 0.01 0.36 0.36 93 1005.3
20260902023244 62 74 0.0 0.0 0.01 0.36 0.36 93 1005.1
20260902022232 62 74 0.0 0.0 0.01 0.36 0.36 93 1005.1
20260902021725 62 74 0.0 0.0 0.01 0.36 0.36 93 1005.2
20260902021220 62 74 0.0 0.0 0.01 0.36 0.36 93 1005.2
20260902020713 62 74 0.0 0.0 0.01 0.36 0.36 93 1005.3
20260902020207 62 74 0.0 0.0 0.01 0.36 0.36 92 1005.3
20260902015702 62 74 0.0 0.0 0.01 0.36 0.36 92 1005.3
20260902015156 62 74 0.0 0.0 0.00 0.35 0.35 93 1005.2
20260902014650 62 74 0.0 0.0 0.00 0.35 0.35 93 1005.2
20260902014144 62 74 0.0 0.0 0.00 0.35 0.35 92 1005.3
20260902013638 62 74 0.0 0.0 0.00 0.35 0.35 93 1005.2
20260902013132 62 74 0.0 0.0 0.00 0.35 0.35 93 1005.2
20260902012626 62 74 0.0 0.0 0.00 0.35 0.35 92 1005.3
20260902012120 62 74 0.0 0.0 0.00 0.35 0.35 92 1005.2
20260902011613 62 74 0.0 0.0 0.00 0.35 0.35 92 1005.2
20260902011108 62 74 0.0 0.0 0.00 0.35 0.35 92 1005.2
20260902010601 62 74 0.0 0.0 0.00 0.35 0.35 92 1005.2
20260902010056 62 74 0.0 0.0 0.00 0.35 0.35 92 1005.1
20260902005549 62 74 0.0 0.0 0.00 0.35 0.35 92 1005.1
20260902005043 62 74 0.0 0.0 0.00 0.35 0.35 92 1005.1
20260902004537 62 74 0.0 0.0 0.00 0.35 0.35 92 1005.0
20260902003526 62 74 0.0 0.0 0.00 0.35 0.35 92 1004.9
20260902002514 63 74 0.0 0.0 0.00 0.35 0.35 92 1004.9
20260902000955 63 74 0.0 0.0 0.00 0.35 0.35 92 1004.5
20260902000456 63 74 0.0 0.0 0.00 0.35 0.35 92 1004.5
20260901235956 63 74 0.0 0.0 0.00 0.35 0.35 92 1004.4
20260901235454 63 74 0.0 0.0 0.00 0.35 0.35 92 1004.5
20260901234954 63 74 0.0 0.0 0.00 0.35 0.35 92 1004.5
20260901234451 63 74 0.0 0.0 0.00 0.35 0.35 92 1004.5
20260901233448 64 74 0.0 0.0 0.00 0.35 0.35 92 1004.3
20260901232949 64 74 0.0 0.0 0.00 0.35 0.35 92 1004.3
20260901232448 64 74 0.0 0.0 0.00 0.35 0.35 92 1004.3
20260901231945 64 74 0.0 0.0 0.00 0.35 0.35 92 1004.3
20260901231443 64 74 0.0 0.0 0.00 0.35 0.35 92 1004.3
20260901230940 64 74 0.0 0.0 0.00 0.35 0.35 92 1004.4
20260901230440 64 74 0.0 0.0 0.00 0.35 0.35 92 1004.4
20260901225938 65 74 0.0 0.0 0.00 0.35 0.35 92 1004.4
20260901225435 65 74 0.0 0.0 0.00 0.35 0.35 92 1004.4
20260901224935 65 74 0.0 0.0 0.00 0.35 0.35 92 1004.3
20260901224436 65 74 0.0 0.0 0.00 0.35 0.35 92 1004.4
20260901223936 65 74 0.0 0.0 0.00 0.35 0.35 92 1004.3
20260901223431 65 74 0.0 0.0 0.00 0.35 0.35 92 1004.3
20260901222930 65 74 0.0 0.0 0.00 0.35 0.35 92 1004.2
20260901222432 65 74 0.0 0.0 0.00 0.35 0.35 92 1004.2
20260901221931 65 74 0.0 0.0 0.00 0.35 0.35 92 1004.2
20260901221430 65 74 0.0 0.0 0.00 0.35 0.35 92 1004.1
20260901220432 65 74 0.0 0.0 0.00 0.35 0.35 92 1004.0
20260901215431 65 74 0.0 0.0 0.00 0.35 0.35 92 1003.9
20260901214930 65 74 0.0 0.0 0.00 0.35 0.35 92 1003.9
20260901214431 65 74 0.0 0.0 0.00 0.35 0.35 92 1003.9
20260901213930 65 74 0.0 0.0 0.00 0.35 0.35 92 1003.8
20260901213430 65 74 0.0 0.0 0.00 0.35 0.35 92 1003.8
20260901212930 65 74 0.0 0.0 0.00 0.35 0.35 92 1003.9
20260901212432 65 74 0.0 0.0 0.00 0.35 0.35 92 1003.8
20260901211932 65 74 0.0 0.0 0.00 0.35 0.35 91 1003.8
20260901211433 66 74 0.0 0.0 0.00 0.35 0.35 91 1003.8
20260901210424 66 74 0.0 0.0 0.00 0.35 0.35 92 1003.8
20260901205918 66 74 0.0 0.0 0.00 0.35 0.35 92 1003.6
20260901205412 66 74 0.0 0.0 0.00 0.35 0.35 92 1003.8
20260901204906 66 74 0.0 0.0 0.00 0.35 0.35 92 1003.7
20260901204402 66 74 0.0 0.0 0.00 0.35 0.35 92 1003.6
20260901203348 66 74 0.0 0.0 0.00 0.35 0.35 92 1003.4
20260901202336 66 74 0.0 0.0 0.00 0.35 0.35 92 1003.6
20260901201829 66 74 0.0 0.0 0.00 0.35 0.35 92 1003.5
20260901201324 66 74 0.0 0.0 0.00 0.35 0.35 92 1003.4
20260901200817 66 74 0.0 0.0 0.00 0.35 0.35 92 1003.3
20260901200311 66 74 0.0 0.0 0.00 0.35 0.35 92 1003.3
20260901195806 66 74 0.0 0.0 0.00 0.35 0.35 91 1003.5
20260901195300 66 74 0.0 0.0 0.00 0.35 0.35 91 1003.4
20260901194754 66 74 0.0 0.0 0.00 0.35 0.35 92 1003.6
20260901194248 66 74 0.0 0.0 0.00 0.35 0.35 92 1003.6
20260901193236 65 74 0.0 0.0 0.00 0.35 0.35 92 1003.5
20260901192730 65 74 0.0 0.0 0.00 0.35 0.35 92 1003.4
20260901192224 65 74 0.0 0.0 0.00 0.35 0.35 92 1003.5
20260901191717 65 74 0.0 0.0 0.00 0.35 0.35 92 1003.6
20260901191211 65 74 0.0 0.0 0.00 0.35 0.35 92 1003.7
20260901190706 65 74 0.0 0.0 0.00 0.35 0.35 92 1003.7
20260901190200 65 74 0.0 0.0 0.00 0.35 0.35 92 1003.8
20260901185654 64 74 0.0 0.0 0.00 0.35 0.35 92 1003.9
20260901185148 65 74 0.0 0.0 0.00 0.35 0.35 92 1003.9
20260901184642 65 74 0.0 0.0 0.00 0.35 0.35 92 1003.9
20260901184136 64 74 0.0 0.0 0.00 0.35 0.35 92 1003.8
20260901183630 64 74 0.0 0.0 0.01 0.35 0.35 92 1003.8
20260901183124 64 74 0.0 0.0 0.01 0.35 0.35 92 1003.8
20260901182618 64 74 0.0 0.0 0.01 0.35 0.35 92 1003.8
20260901182112 64 74 0.0 0.0 0.01 0.35 0.35 92 1003.8
20260901181606 64 74 0.0 0.0 0.01 0.35 0.35 93 1003.7
20260901181100 64 74 0.0 0.0 0.01 0.35 0.35 93 1003.7
20260901180554 64 74 0.0 0.0 0.01 0.35 0.35 93 1003.7
20260901175541 63 74 0.0 0.0 0.01 0.35 0.35 93 1003.6
20260901175035 63 74 0.0 0.0 0.01 0.35 0.35 93 1003.7
20260901174530 63 74 0.0 0.0 0.01 0.35 0.35 92 1003.7
20260901174024 63 74 0.0 0.0 0.00 0.34 0.35 93 1003.6
20260901173518 63 74 0.0 0.0 0.00 0.34 0.34 93 1003.5
20260901173011 63 74 0.0 0.0 0.00 0.34 0.34 93 1003.6
20260901172506 62 74 0.0 0.0 0.00 0.34 0.34 93 1003.5
20260901172000 62 74 0.0 0.0 0.00 0.34 0.34 93 1003.5
20260901171453 62 74 0.0 0.0 0.00 0.34 0.34 93 1003.5
20260901165940 62 74 0.0 0.0 0.00 0.34 0.34 93 1003.2
20260901165426 62 74 0.0 0.0 0.00 0.34 0.34 93 1003.4
20260901164920 62 74 0.0 0.0 0.01 0.34 0.34 93 1003.2
20260901164414 62 74 0.0 0.0 0.01 0.34 0.34 93 1003.3
20260901163908 62 74 0.0 0.0 0.01 0.34 0.34 93 1003.4
20260901162855 61 74 0.0 0.0 0.01 0.34 0.34 93 1003.8